This demonstration page uses our WeatherBlox Daily Observations layout. Learn more.

Hourly Observations for September 17, 2019

Temp ( °F °C ) Dew Point ( °F °C ) Humidity (%) Winds ( mph kmh ) Pressure ( in mb ) Visibility ( mi km ) Precip ( " mm )
12:15 am 00:15 Clear 77 25 63 17 61 61 S 14 22 29.81 1009 10 16.0934 0 0
12:35 am 00:35 Clear 76 24.5 63 17.1 63 63 S 14 22 29.8 1009 10 16.0934 0 0
12:55 am 00:55 Clear 74 23.2 64 17.5 70 70 SSE 12 19 29.81 1010 10 16.0934 0 0
1:15 am 01:15 Clear 73 22.8 64 17.5 72 72 SSE 13 20 29.81 1010 10 16.0934 0 0
1:35 am 01:35 Clear 72 22.1 64 17.5 75 75 SSE 10 17 29.82 1010 10 16.0934 0 0
1:55 am 01:55 Clear 71 21.6 64 17.6 78 78 SSE 12 19 29.82 1010 10 16.0934 0 0
2:15 am 02:15 Clear 71 21.7 64 17.5 77 77 SSE 13 20 29.83 1010 10 16.0934 0 0
2:35 am 02:35 Clear 71 21.7 64 17.6 78 78 SSE 12 19 29.82 1010 10 16.0934 0 0
2:55 am 02:55 Clear 72 22.1 64 17.5 75 75 SSE 13 20 29.82 1010 10 16.0934 0 0
3:15 am 03:15 Clear 72 22.4 64 17.5 74 74 S 16 26 29.82 1010 10 16.0934 0 0
3:35 am 03:35 Clear 73 22.5 64 17.5 73 73 S 16 26 29.81 1009 10 16.0934 0 0
3:55 am 03:55 Clear 73 22.5 64 17.5 73 73 S 14 22 29.81 1009 10 16.0934 0 0
4:15 am 04:15 Clear 72 22.2 64 17.7 76 76 S 13 20 29.81 1009 10 16.0934 0 0
4:35 am 04:35 Clear 72 22 64 17.8 77 77 S 15 24 29.81 1010 10 16.0934 0 0
4:55 am 04:55 Clear 71 21.8 64 18 79 79 S 14 22 29.8 1009 10 16.0934 0 0
5:15 am 05:15 Partly Cloudy 71 21.7 65 18.1 80 80 S 14 22 29.81 1010 10 16.0934 0 0
5:35 am 05:35 Mostly Cloudy 71 21.7 65 18.2 81 81 S 15 24 29.81 1010 10 16.0934 0 0
5:55 am 05:55 Cloudy 72 22.1 65 18.3 79 79 S 16 26 29.81 1009 10 16.0934 0 0
6:15 am 06:15 Mostly Cloudy 72 22.1 65 18.3 79 79 S 14 22 29.81 1009 10 16.0934 0 0
6:35 am 06:35 Partly Cloudy 72 22 65 18.3 80 80 S 13 20 29.82 1010 10 16.0934 0 0
6:55 am 06:55 Partly Cloudy 71 21.7 65 18.3 81 81 S 14 22 29.81 1010 10 16.0934 0 0
7:15 am 07:15 Partly Cloudy 71 21.6 65 18.3 82 82 S 12 19 29.82 1010 10 16.0934 0 0
7:35 am 07:35 Sunny 71 21.6 65 18.3 82 82 S 13 20 29.83 1010 10 16.0934 0 0
7:55 am 07:55 Sunny 71 21.6 65 18.3 82 82 S 14 22 29.83 1010 10 16.0934 0 0
8:15 am 08:15 Sunny 72 22.1 65 18.5 80 80 S 15 24 29.83 1010 10 16.0934 0 0
8:35 am 08:35 Sunny 73 22.5 65 18.5 78 78 S 15 24 29.82 1010 10 16.0934 0 0
8:55 am 08:55 Sunny 74 23.1 65 18.3 74 74 S 17 28 29.81 1010 10 16.0934 0 0
9:15 am 09:15 Sunny 75 23.7 65 18.3 72 72 S 17 28 29.81 1009 10 16.0934 0 0
9:35 am 09:35 Partly Cloudy 76 24.4 65 18.2 68 68 S 16 26 29.79 1009 10 16.0934 0 0
9:55 am 09:55 Sunny 77 25 65 18.2 66 66 S 14 22 29.79 1009 10 16.0934 0 0
10:15 am 10:15 Partly Cloudy 80 26.4 66 19 64 64 S 21 33 29.78 1008 10 16.0934 0 0
10:35 am 10:35 undefined N/A N/A N/A undefined N/A N/A N/A 0 0
10:55 am 10:55 undefined N/A N/A N/A undefined N/A N/A N/A 0 0
11:15 am 11:15 Sunny 82 28 65 18.3 56 56 SSE 20 31 29.75 1008 10 16.0934 0 0
11:35 am 11:35 Sunny 84 28.8 65 18.1 52 52 S 22 35 29.75 1007 10 16.0934 0 0
11:55 am 11:55 Sunny 85 29.4 64 17.5 49 49 S 23 37 29.73 1007 10 16.0934 0 0
12:15 pm 12:15 Sunny 86 30 64 17.5 47 47 S 23 37 29.73 1007 10 16.0934 0 0
12:35 pm 12:35 Sunny 87 30.5 64 17.7 46 46 S 21 33 29.7 1006 10 16.0934 0 0
12:55 pm 12:55 Sunny 87 30.5 63 17.4 45 45 S 24 39 29.7 1006 10 16.0934 0 0
1:15 pm 13:15 Sunny 88 31 63 17.2 44 44 S 20 31 29.69 1005 10 16.0934 0 0
1:35 pm 13:35 Sunny 88 31.2 63 17.3 43 43 S 26 43 29.69 1005 10 16.0934 0 0
1:55 pm 13:55 Sunny 89 31.5 64 17.5 43 43 S 22 35 29.68 1005 10 16.0934 0 0
2:15 pm 14:15 Sunny 89 31.6 63 17.2 42 42 S 24 39 29.67 1005 10 16.0934 0 0
2:35 pm 14:35 Sunny 89 31.8 63 17.3 42 42 S 23 37 29.65 1004 10 16.0934 0 0
2:55 pm 14:55 Sunny 91 32.5 63 17 39 39 S 23 37 29.65 1004 10 16.0934 0 0
3:15 pm 15:15 Partly Cloudy 89 31.5 62 16.7 41 41 S 23 37 29.65 1004 10 16.0934 0 0
3:35 pm 15:35 Partly Cloudy 91 32.5 62 16.8 39 39 S 24 39 29.64 1004 10 16.0934 0 0
3:55 pm 15:55 Partly Cloudy 91 33 63 17.3 39 39 S 26 43 29.64 1004 10 16.0934 0 0
4:15 pm 16:15 Partly Cloudy 91 32.5 63 17.1 40 40 S 25 41 29.64 1004 10 16.0934 0 0
4:35 pm 16:35 Sunny 90 32.3 63 17.1 40 40 S 22 35 29.63 1003 10 16.0934 0 0
4:55 pm 16:55 Sunny 90 32.4 63 17.1 40 40 S 22 35 29.62 1003 10 16.0934 0 0
5:15 pm 17:15 Sunny 90 32.3 63 17 40 40 S 20 31 29.61 1003 10 16.0934 0 0
5:35 pm 17:35 Sunny 89 31.8 63 17 41 41 S 20 31 29.61 1003 10 16.0934 0 0
5:55 pm 17:55 Sunny 89 31.8 62 16.6 40 40 S 16 26 29.61 1003 10 16.0934 0 0
6:15 pm 18:15 Sunny 89 31.6 62 16.8 41 41 S 22 35 29.62 1003 10 16.0934 0 0
6:35 pm 18:35 Sunny 87 30.8 62 16.9 43 43 SSE 18 30 29.62 1003 10 16.0934 0 0
6:55 pm 18:55 Sunny 87 30.3 62 16.6 44 44 SSE 17 28 29.63 1003 10 16.0934 0 0
7:15 pm 19:15 Sunny 85 29.6 62 16.5 45 45 SSE 17 28 29.63 1003 10 16.0934 0 0
7:35 pm 19:35 Sunny 84 28.7 62 16.8 49 49 SSE 13 20 29.65 1004 10 16.0934 0 0
7:55 pm 19:55 Clear 82 27.5 63 17.1 53 53 SSE 13 20 29.66 1004 10 16.0934 0 0
8:15 pm 20:15 Clear 81 27.1 63 17.2 55 55 SSE 13 20 29.66 1004 10 16.0934 0 0
8:35 pm 20:35 Clear 81 27 63 17.2 55 55 SSE 15 24 29.67 1005 10 16.0934 0 0
8:55 pm 20:55 Clear 80 26.5 63 17.2 57 57 SSE 15 24 29.69 1005 10 16.0934 0 0
9:15 pm 21:15 Clear 79 26.2 63 17.3 58 58 SSE 16 26 29.7 1006 10 16.0934 0 0
9:35 pm 21:35 Clear 79 26.1 63 17.1 58 58 SSE 14 22 29.7 1006 10 16.0934 0 0
9:55 pm 21:55 Clear 78 25.8 63 17.1 59 59 S 15 24 29.7 1006 10 16.0934 0 0
10:15 pm 22:15 Clear 78 25.7 63 17.1 59 59 S 17 28 29.7 1006 10 16.0934 0 0
10:35 pm 22:35 Clear 77 25.2 63 17.1 61 61 S 16 26 29.71 1006 10 16.0934 0 0
10:55 pm 22:55 Clear 76 24.6 63 17.2 64 64 S 13 20 29.72 1006 10 16.0934 0 0
11:15 pm 23:15 Clear 76 24.4 63 17.3 65 65 S 14 22 29.71 1006 10 16.0934 0 0
11:35 pm 23:35 Clear 76 24.5 63 17.2 64 64 S 15 24 29.72 1006 10 16.0934 0 0
11:55 pm 23:55 Clear 75 24.1 63 17.1 65 65 S 14 22 29.72 1007 10 16.0934 0 0

Powered by AerisWeather